Time,TemperatureF,DewpointF,PressureIn,WindDirection,WindDirectionDegrees,WindSpeedMPH,WindSpeedGustMPH,Humidity,HourlyPrecipIn,Conditions,Clouds,dailyrainin,SoftwareType,DateUTC
2013-01-11 00:03:00,36.0,36.0,-100.00,NE,50,1.0,3.0,99,0.21,,,-99.99,,2013-01-11 06:03:00,
2013-01-11 00:12:00,36.0,36.0,-100.00,ENE,65,2.0,3.0,99,0.00,,,-99.99,,2013-01-11 06:12:00,
2013-01-11 00:22:00,36.0,36.0,-100.00,NW,325,1.0,2.0,99,0.00,,,-99.99,,2013-01-11 06:22:00,
2013-01-11 00:32:00,36.0,36.0,-100.00,North,10,1.0,2.0,99,0.20,,,-99.99,,2013-01-11 06:32:00,
2013-01-11 00:42:00,36.0,36.0,-100.00,North,10,1.0,2.0,99,0.20,,,-99.99,,2013-01-11 06:42:00,
2013-01-11 00:52:00,35.0,35.0,-100.00,SSE,150,0.0,2.0,99,0.20,,,-99.99,,2013-01-11 06:52:00,
2013-01-11 01:02:00,35.0,35.0,-100.00,SSE,150,0.0,2.0,99,0.20,,,-99.99,,2013-01-11 07:02:00,
2013-01-11 01:12:00,36.0,36.0,-100.00,West,265,0.0,2.0,99,0.00,,,-99.99,,2013-01-11 07:12:00,
2013-01-11 01:22:00,35.0,35.0,-100.00,South,185,0.0,1.0,99,0.21,,,-99.99,,2013-01-11 07:22:00,
2013-01-11 01:32:00,35.0,35.0,-100.00,ESE,115,1.0,2.0,99,0.00,,,-99.99,,2013-01-11 07:32:00,
2013-01-11 01:42:00,35.0,35.0,-100.00,ESE,115,1.0,2.0,99,0.00,,,-99.99,,2013-01-11 07:42:00,
2013-01-11 01:52:00,34.0,34.0,-100.00,ESE,120,2.0,4.0,99,0.00,,,-99.99,,2013-01-11 07:52:00,
2013-01-11 02:02:00,34.0,34.0,-100.00,ESE,120,2.0,4.0,99,0.00,,,-99.99,,2013-01-11 08:02:00,
2013-01-11 02:12:00,35.0,35.0,-100.00,North,5,1.0,1.0,99,0.00,,,-99.99,,2013-01-11 08:12:00,
2013-01-11 02:22:00,35.0,35.0,-100.00,North,355,3.0,4.0,99,0.21,,,-99.99,,2013-01-11 08:22:00,
2013-01-11 02:32:00,35.0,35.0,-100.00,NNW,340,2.0,4.0,99,0.00,,,-99.99,,2013-01-11 08:32:00,
2013-01-11 02:42:00,35.0,35.0,-100.00,NNW,340,2.0,4.0,99,0.00,,,-99.99,,2013-01-11 08:42:00,
2013-01-11 02:52:00,35.0,35.0,-100.00,NW,325,0.0,3.0,99,0.00,,,-99.99,,2013-01-11 08:52:00,
2013-01-11 03:02:00,35.0,35.0,-100.00,NW,325,0.0,3.0,99,0.00,,,-99.99,,2013-01-11 09:02:00,
2013-01-11 03:12:00,35.0,35.0,-100.00,WSW,240,0.0,1.0,99,0.00,,,-99.99,,2013-01-11 09:12:00,
2013-01-11 03:22:00,35.0,35.0,-100.00,WSW,240,0.0,0.0,99,0.00,,,-99.99,,2013-01-11 09:22:00,
2013-01-11 03:32:00,35.0,35.0,-100.00,NNE,25,1.0,2.0,99,0.00,,,-99.99,,2013-01-11 09:32:00,
2013-01-11 03:42:00,35.0,35.0,-100.00,NNE,25,1.0,2.0,99,0.00,,,-99.99,,2013-01-11 09:42:00,
2013-01-11 03:52:00,35.0,35.0,-100.00,SW,225,0.0,3.0,99,0.00,,,-99.99,,2013-01-11 09:52:00,
2013-01-11 04:02:00,35.0,35.0,-100.00,SW,225,0.0,3.0,99,0.00,,,-99.99,,2013-01-11 10:02:00,
2013-01-11 04:12:00,35.0,35.0,-100.00,ENE,65,0.0,1.0,99,0.00,,,-99.99,,2013-01-11 10:12:00,
2013-01-11 04:22:00,35.0,35.0,-100.00,ENE,70,0.0,3.0,99,0.00,,,-99.99,,2013-01-11 10:22:00,
2013-01-11 04:32:00,35.0,35.0,-100.00,West,260,4.0,6.0,99,0.00,,,-99.99,,2013-01-11 10:32:00,
2013-01-11 04:42:00,35.0,35.0,-100.00,West,260,4.0,6.0,99,0.00,,,-99.99,,2013-01-11 10:42:00,
2013-01-11 04:52:00,36.0,36.0,-100.00,SW,230,0.0,2.0,99,0.00,,,-99.99,,2013-01-11 10:52:00,
2013-01-11 05:03:00,36.0,36.0,-100.00,SW,230,0.0,2.0,99,0.00,,,-99.99,,2013-01-11 11:03:00,
2013-01-11 05:12:00,35.0,35.0,-100.00,South,175,1.0,4.0,99,0.00,,,-99.99,,2013-01-11 11:12:00,
2013-01-11 05:22:00,37.0,37.0,-100.00,South,185,1.0,4.0,99,0.00,,,-99.99,,2013-01-11 11:22:00,
2013-01-11 05:33:00,38.0,37.0,-100.00,SSE,165,2.0,4.0,99,0.00,,,-99.99,,2013-01-11 11:33:00,
2013-01-11 05:42:00,38.0,37.0,-100.00,SSE,165,2.0,4.0,99,0.00,,,-99.99,,2013-01-11 11:42:00,
2013-01-11 05:52:00,39.0,38.0,-100.00,South,175,4.0,9.0,99,0.00,,,-99.99,,2013-01-11 11:52:00,
2013-01-11 06:03:00,39.0,38.0,-100.00,South,175,4.0,9.0,99,0.00,,,-99.99,,2013-01-11 12:03:00,
2013-01-11 06:12:00,38.0,38.0,-100.00,SW,220,4.0,10.0,99,0.00,,,-99.99,,2013-01-11 12:12:00,
2013-01-11 06:22:00,37.0,37.0,-100.00,SSW,205,5.0,7.0,99,0.00,,,-99.99,,2013-01-11 12:22:00,
2013-01-11 06:32:00,38.0,38.0,-100.00,SW,220,7.0,11.0,99,0.00,,,-99.99,,2013-01-11 12:32:00,
2013-01-11 06:42:00,38.0,38.0,-100.00,SW,220,7.0,11.0,99,0.00,,,-99.99,,2013-01-11 12:42:00,
2013-01-11 06:52:00,37.0,37.0,-100.00,SW,225,7.0,9.0,99,0.00,,,-99.99,,2013-01-11 12:52:00,
2013-01-11 07:02:00,37.0,37.0,-100.00,SW,225,7.0,9.0,99,0.00,,,-99.99,,2013-01-11 13:02:00,
2013-01-11 07:12:00,38.0,38.0,-100.00,SW,220,9.0,14.0,99,0.00,,,-99.99,,2013-01-11 13:12:00,
2013-01-11 07:22:00,38.0,37.0,-100.00,SW,215,6.0,11.0,99,0.00,,,-99.99,,2013-01-11 13:22:00,
2013-01-11 07:33:00,38.0,38.0,-100.00,SSW,205,3.0,6.0,99,0.00,,,-99.99,,2013-01-11 13:33:00,
2013-01-11 07:42:00,38.0,38.0,-100.00,SSW,205,3.0,6.0,99,0.00,,,-99.99,,2013-01-11 13:42:00,
2013-01-11 07:52:00,38.0,38.0,-100.00,South,175,1.0,2.0,99,0.00,,,-99.99,,2013-01-11 13:52:00,
2013-01-11 08:03:00,38.0,38.0,-100.00,South,175,1.0,2.0,99,0.00,,,-99.99,,2013-01-11 14:03:00,
2013-01-11 08:12:00,39.0,39.0,-100.00,West,270,2.0,4.0,99,0.00,,,-99.99,,2013-01-11 14:12:00,
2013-01-11 08:22:00,39.0,39.0,-100.00,South,190,0.0,3.0,99,0.00,,,-99.99,,2013-01-11 14:22:00,
2013-01-11 08:33:00,40.0,40.0,-100.00,South,190,4.0,6.0,99,0.00,,,-99.99,,2013-01-11 14:33:00,
2013-01-11 08:42:00,40.0,40.0,-100.00,South,190,4.0,6.0,99,0.00,,,-99.99,,2013-01-11 14:42:00,
2013-01-11 08:53:00,41.0,41.0,-100.00,SSW,205,5.0,9.0,99,0.00,,,-99.99,,2013-01-11 14:53:00,
2013-01-11 09:03:00,41.0,41.0,-100.00,SSW,205,5.0,9.0,99,0.00,,,-99.99,,2013-01-11 15:03:00,
2013-01-11 09:12:00,41.0,41.0,-100.00,SSW,205,6.0,11.0,99,0.00,,,-99.99,,2013-01-11 15:12:00,
2013-01-11 09:23:00,41.0,41.0,-100.00,SSW,210,7.0,12.0,99,0.00,,,-99.99,,2013-01-11 15:23:00,
2013-01-11 09:33:00,43.0,43.0,-100.00,SSW,205,7.0,12.0,99,0.00,,,-99.99,,2013-01-11 15:33:00,
2013-01-11 09:42:00,43.0,43.0,-100.00,SSW,205,7.0,12.0,99,0.00,,,-99.99,,2013-01-11 15:42:00,
2013-01-11 09:52:00,43.0,43.0,-100.00,SSW,195,7.0,14.0,99,0.00,,,-99.99,,2013-01-11 15:52:00,
2013-01-11 10:03:00,43.0,43.0,-100.00,SSW,195,7.0,14.0,99,0.00,,,-99.99,,2013-01-11 16:03:00,
2013-01-11 10:12:00,43.0,43.0,-100.00,SSW,200,9.0,11.0,99,0.00,,,-99.99,,2013-01-11 16:12:00,
2013-01-11 10:22:00,44.0,44.0,-100.00,SSW,195,7.0,11.0,99,0.00,,,-99.99,,2013-01-11 16:22:00,
2013-01-11 10:33:00,44.0,44.0,-100.00,South,190,4.0,10.0,99,0.00,,,-99.99,,2013-01-11 16:33:00,
2013-01-11 10:42:00,44.0,44.0,-100.00,South,190,4.0,10.0,99,0.00,,,-99.99,,2013-01-11 16:42:00,
2013-01-11 10:52:00,45.0,45.0,-100.00,South,185,5.0,9.0,99,0.00,,,-99.99,,2013-01-11 16:52:00,
2013-01-11 11:03:00,45.0,45.0,-100.00,South,185,5.0,9.0,99,0.00,,,-99.99,,2013-01-11 17:03:00,
2013-01-11 11:12:00,45.0,45.0,-100.00,South,180,4.0,10.0,99,0.00,,,-99.99,,2013-01-11 17:12:00,
2013-01-11 11:22:00,45.0,45.0,-100.00,SSE,165,5.0,9.0,99,0.00,,,-99.99,,2013-01-11 17:22:00,
2013-01-11 11:33:00,45.0,45.0,-100.00,SSW,200,6.0,12.0,99,0.00,,,-99.99,,2013-01-11 17:33:00,
2013-01-11 11:43:00,45.0,45.0,-100.00,SSW,200,6.0,12.0,99,0.00,,,-99.99,,2013-01-11 17:43:00,
2013-01-11 11:53:00,45.0,45.0,-100.00,SSW,205,6.0,12.0,99,0.00,,,-99.99,,2013-01-11 17:53:00,
2013-01-11 12:03:00,45.0,45.0,-100.00,SSW,205,6.0,12.0,99,0.00,,,-99.99,,2013-01-11 18:03:00,
2013-01-11 12:12:00,46.0,45.0,-100.00,SSW,200,6.0,9.0,99,0.00,,,-99.99,,2013-01-11 18:12:00,
2013-01-11 12:23:00,46.0,45.0,-100.00,South,180,4.0,7.0,99,0.00,,,-99.99,,2013-01-11 18:23:00,
2013-01-11 12:33:00,46.0,46.0,-100.00,SSW,195,6.0,12.0,99,0.00,,,-99.99,,2013-01-11 18:33:00,
2013-01-11 12:43:00,46.0,46.0,-100.00,SSW,195,6.0,12.0,99,0.00,,,-99.99,,2013-01-11 18:43:00,
2013-01-11 12:53:00,47.0,46.0,-100.00,SSE,160,7.0,14.0,99,0.00,,,-99.99,,2013-01-11 18:53:00,
2013-01-11 13:02:00,47.0,46.0,-100.00,SSE,160,7.0,14.0,99,0.00,,,-99.99,,2013-01-11 19:02:00,
2013-01-11 13:12:00,46.0,46.0,-100.00,South,170,6.0,14.0,99,0.00,,,-99.99,,2013-01-11 19:12:00,
2013-01-11 13:22:00,47.0,47.0,-100.00,South,180,7.0,14.0,99,0.00,,,-99.99,,2013-01-11 19:22:00,
2013-01-11 13:32:00,46.0,46.0,-100.00,SSW,200,6.0,10.0,99,0.00,,,-99.99,,2013-01-11 19:32:00,
2013-01-11 13:43:00,46.0,46.0,-100.00,SSW,200,6.0,10.0,99,0.00,,,-99.99,,2013-01-11 19:43:00,
2013-01-11 13:53:00,46.0,46.0,-100.00,SSW,200,8.0,14.0,99,0.00,,,-99.99,,2013-01-11 19:53:00,
2013-01-11 14:03:00,46.0,46.0,-100.00,SSW,200,8.0,14.0,99,0.00,,,-99.99,,2013-01-11 20:03:00,
2013-01-11 14:12:00,46.0,46.0,-100.00,South,190,6.0,10.0,99,0.00,,,-99.99,,2013-01-11 20:12:00,
2013-01-11 14:22:00,46.0,46.0,-100.00,South,180,6.0,12.0,99,0.00,,,-99.99,,2013-01-11 20:22:00,
2013-01-11 14:33:00,47.0,47.0,-100.00,SSW,195,7.0,12.0,99,0.00,,,-99.99,,2013-01-11 20:33:00,
2013-01-11 14:43:00,47.0,47.0,-100.00,SSW,195,7.0,12.0,99,0.00,,,-99.99,,2013-01-11 20:43:00,
2013-01-11 14:52:00,47.0,46.0,-100.00,SSW,200,6.0,12.0,99,0.00,,,-99.99,,2013-01-11 20:52:00,
2013-01-11 15:03:00,47.0,46.0,-100.00,SSW,200,6.0,12.0,99,0.00,,,-99.99,,2013-01-11 21:03:00,
2013-01-11 15:12:00,47.0,47.0,-100.00,SSW,195,7.0,12.0,99,0.00,,,-99.99,,2013-01-11 21:12:00,
2013-01-11 15:23:00,47.0,47.0,-100.00,SSW,195,9.0,12.0,99,0.00,,,-99.99,,2013-01-11 21:23:00,
2013-01-11 15:33:00,48.0,47.0,-100.00,SSW,200,7.0,12.0,99,0.00,,,-99.99,,2013-01-11 21:33:00,
2013-01-11 15:42:00,48.0,47.0,-100.00,SSW,200,7.0,12.0,99,0.00,,,-99.99,,2013-01-11 21:42:00,
2013-01-11 15:52:00,49.0,49.0,-100.00,South,175,4.0,12.0,99,0.00,,,-99.99,,2013-01-11 21:52:00,
2013-01-11 16:02:00,49.0,49.0,-100.00,South,175,4.0,12.0,99,0.00,,,-99.99,,2013-01-11 22:02:00,
2013-01-11 16:12:00,49.0,49.0,-100.00,South,185,6.0,12.0,99,0.00,,,-99.99,,2013-01-11 22:12:00,
2013-01-11 16:22:00,48.0,48.0,-100.00,SSW,205,6.0,12.0,99,0.00,,,-99.99,,2013-01-11 22:22:00,
2013-01-11 16:33:00,48.0,47.0,-100.00,South,185,4.0,9.0,99,0.00,,,-99.99,,2013-01-11 22:33:00,
2013-01-11 16:42:00,48.0,47.0,-100.00,South,185,4.0,9.0,99,0.00,,,-99.99,,2013-01-11 22:42:00,
2013-01-11 16:52:00,47.0,47.0,-100.00,SSW,205,4.0,7.0,99,0.00,,,-99.99,,2013-01-11 22:52:00,
2013-01-11 17:02:00,47.0,47.0,-100.00,SSW,205,4.0,7.0,99,0.00,,,-99.99,,2013-01-11 23:02:00,
2013-01-11 17:12:00,48.0,48.0,-100.00,SSW,200,2.0,6.0,99,0.00,,,-99.99,,2013-01-11 23:12:00,
2013-01-11 17:22:00,47.0,47.0,-100.00,SSW,205,4.0,9.0,99,0.00,,,-99.99,,2013-01-11 23:22:00,
2013-01-11 17:32:00,46.0,46.0,-100.00,South,180,6.0,9.0,99,0.00,,,-99.99,,2013-01-11 23:32:00,
2013-01-11 17:42:00,46.0,46.0,-100.00,South,180,6.0,9.0,99,0.00,,,-99.99,,2013-01-11 23:42:00,
2013-01-11 17:53:00,45.0,45.0,-100.00,SSW,200,7.0,8.0,99,0.00,,,-99.99,,2013-01-11 23:53:00,
2013-01-11 18:02:00,45.0,45.0,-100.00,SSW,200,7.0,8.0,99,0.00,,,-99.99,,2013-01-12 00:02:00,
2013-01-11 18:12:00,45.0,45.0,-100.00,South,175,4.0,7.0,99,0.00,,,-99.99,,2013-01-12 00:12:00,
2013-01-11 18:22:00,45.0,45.0,-100.00,SSW,200,6.0,9.0,99,0.00,,,-99.99,,2013-01-12 00:22:00,
2013-01-11 18:32:00,46.0,46.0,-100.00,SSW,200,7.0,12.0,99,0.00,,,-99.99,,2013-01-12 00:32:00,
2013-01-11 18:42:00,46.0,46.0,-100.00,SSW,200,7.0,12.0,99,0.00,,,-99.99,,2013-01-12 00:42:00,
2013-01-11 18:52:00,47.0,47.0,-100.00,SSW,200,11.0,16.0,99,0.00,,,-99.99,,2013-01-12 00:52:00,
2013-01-11 19:02:00,47.0,47.0,-100.00,SSW,200,11.0,16.0,99,0.00,,,-99.99,,2013-01-12 01:02:00,
2013-01-11 19:12:00,47.0,47.0,-100.00,SSW,205,12.0,16.0,99,0.00,,,-99.99,,2013-01-12 01:12:00,
2013-01-11 19:22:00,47.0,47.0,-100.00,SSW,200,12.0,16.0,99,0.00,,,-99.99,,2013-01-12 01:22:00,
2013-01-11 19:32:00,48.0,48.0,-100.00,SW,215,12.0,18.0,99,0.00,,,-99.99,,2013-01-12 01:32:00,
2013-01-11 19:42:00,48.0,48.0,-100.00,SW,215,12.0,18.0,99,0.00,,,-99.99,,2013-01-12 01:42:00,
2013-01-11 19:52:00,48.0,48.0,-100.00,SW,225,11.0,19.0,99,0.00,,,-99.99,,2013-01-12 01:52:00,
2013-01-11 20:02:00,48.0,48.0,-100.00,SW,225,11.0,19.0,99,0.00,,,-99.99,,2013-01-12 02:02:00,
2013-01-11 20:12:00,48.0,48.0,-100.00,SW,215,14.0,19.0,99,0.00,,,-99.99,,2013-01-12 02:12:00,
2013-01-11 20:22:00,49.0,49.0,-100.00,SW,220,13.0,19.0,99,0.00,,,-99.99,,2013-01-12 02:22:00,
2013-01-11 20:32:00,49.0,48.0,-100.00,SW,215,14.0,20.0,96,0.00,,,-99.99,,2013-01-12 02:32:00,
2013-01-11 20:42:00,49.0,48.0,-100.00,SW,215,14.0,20.0,96,0.00,,,-99.99,,2013-01-12 02:42:00,
2013-01-11 20:52:00,49.0,48.0,-100.00,SW,220,11.0,20.0,97,0.00,,,-99.99,,2013-01-12 02:52:00,
2013-01-11 21:02:00,49.0,48.0,-100.00,SW,220,11.0,20.0,97,0.00,,,-99.99,,2013-01-12 03:02:00,
2013-01-11 21:12:00,49.0,48.0,-100.00,SW,220,13.0,17.0,95,0.00,,,-99.99,,2013-01-12 03:12:00,
2013-01-11 21:22:00,49.0,48.0,-100.00,SW,220,14.0,19.0,96,0.00,,,-99.99,,2013-01-12 03:22:00,
2013-01-11 21:33:00,49.0,48.0,-100.00,SW,220,12.0,21.0,95,0.00,,,-99.99,,2013-01-12 03:33:00,
2013-01-11 21:42:00,49.0,48.0,-100.00,SW,220,12.0,21.0,95,0.00,,,-99.99,,2013-01-12 03:42:00,
2013-01-11 21:52:00,50.0,48.0,-100.00,SW,215,17.0,24.0,92,0.00,,,-99.99,,2013-01-12 03:52:00,
2013-01-11 22:02:00,50.0,48.0,-100.00,SW,215,17.0,24.0,92,0.00,,,-99.99,,2013-01-12 04:02:00,
2013-01-11 22:12:00,50.0,48.0,-100.00,SW,215,17.0,22.0,92,0.00,,,-99.99,,2013-01-12 04:12:00,
2013-01-11 22:22:00,50.0,48.0,-100.00,SW,220,19.0,24.0,90,0.00,,,-99.99,,2013-01-12 04:22:00,
2013-01-11 22:32:00,50.0,47.0,-100.00,SW,220,16.0,22.0,89,0.00,,,-99.99,,2013-01-12 04:32:00,
2013-01-11 22:42:00,50.0,47.0,-100.00,SW,220,16.0,22.0,89,0.00,,,-99.99,,2013-01-12 04:42:00,
2013-01-11 22:52:00,50.0,47.0,-100.00,SW,220,16.0,22.0,90,0.00,,,-99.99,,2013-01-12 04:52:00,
2013-01-11 23:03:00,50.0,47.0,-100.00,SW,220,16.0,22.0,90,0.00,,,-99.99,,2013-01-12 05:03:00,
2013-01-11 23:12:00,50.0,47.0,-100.00,SW,225,16.0,22.0,89,0.00,,,-99.99,,2013-01-12 05:12:00,
2013-01-11 23:22:00,50.0,47.0,-100.00,SW,225,17.0,22.0,88,0.00,,,-99.99,,2013-01-12 05:22:00,
2013-01-11 23:32:00,50.0,47.0,-100.00,SW,225,14.0,21.0,88,0.00,,,-99.99,,2013-01-12 05:32:00,
2013-01-11 23:42:00,50.0,47.0,-100.00,SW,225,14.0,21.0,88,0.00,,,-99.99,,2013-01-12 05:42:00,
2013-01-11 23:52:00,51.0,47.0,-100.00,SW,230,20.0,25.0,86,0.00,,,-99.99,,2013-01-12 05:52:00,